TimeCDT,TemperatureF,Dew PointF,Humidity,Sea Level PressureIn,VisibilityMPH,Wind Direction,Wind SpeedMPH,Gust SpeedMPH,PrecipitationIn,Events,Conditions,WindDirDegrees,DateUTC
12:53 AM,18.0,12.9,81,30.41,10.0,North,8.1,-,N/A,,Clear,350,2013-03-13 05:53:00
1:53 AM,16.0,12.0,84,30.42,10.0,NW,5.8,-,N/A,,Clear,310,2013-03-13 06:53:00
2:53 AM,14.0,10.0,84,30.44,10.0,WNW,6.9,-,N/A,,Clear,300,2013-03-13 07:53:00
3:53 AM,12.9,9.0,84,30.43,10.0,WNW,3.5,-,N/A,,Clear,300,2013-03-13 08:53:00
4:53 AM,12.0,8.1,84,30.43,10.0,WNW,4.6,-,N/A,,Clear,290,2013-03-13 09:53:00
5:53 AM,12.9,9.0,84,30.43,10.0,Calm,Calm,-,N/A,,Clear,0,2013-03-13 10:53:00
6:53 AM,12.9,9.0,84,30.45,10.0,Calm,Calm,-,N/A,,Clear,0,2013-03-13 11:53:00
7:53 AM,12.9,8.1,81,30.44,10.0,Calm,Calm,-,N/A,,Clear,0,2013-03-13 12:53:00
8:53 AM,15.1,10.0,80,30.43,10.0,East,3.5,-,N/A,,Clear,100,2013-03-13 13:53:00
9:53 AM,18.0,12.9,81,30.43,10.0,SE,5.8,-,N/A,,Clear,130,2013-03-13 14:53:00
10:53 AM,21.9,15.1,75,30.44,10.0,SSE,5.8,-,N/A,,Clear,160,2013-03-13 15:53:00
11:53 AM,26.1,17.1,69,30.41,10.0,SSE,8.1,-,N/A,,Mostly Cloudy,150,2013-03-13 16:53:00
12:53 PM,28.9,19.9,69,30.39,10.0,SE,11.5,-,N/A,,Mostly Cloudy,130,2013-03-13 17:53:00
1:53 PM,32.0,21.9,66,30.37,10.0,SSE,13.8,-,N/A,,Clear,150,2013-03-13 18:53:00
2:53 PM,34.0,23.0,64,30.33,10.0,SSE,13.8,-,N/A,,Clear,150,2013-03-13 19:53:00
3:53 PM,37.0,23.0,57,30.29,10.0,SSE,18.4,-,N/A,,Clear,150,2013-03-13 20:53:00
4:53 PM,37.9,26.1,62,30.26,10.0,SSE,19.6,-,N/A,,Clear,160,2013-03-13 21:53:00
5:53 PM,39.0,27.0,62,30.24,10.0,SSE,18.4,24.2,N/A,,Clear,150,2013-03-13 22:53:00
6:53 PM,37.9,28.0,68,30.21,10.0,SSE,15.0,21.9,N/A,,Clear,150,2013-03-13 23:53:00
7:53 PM,36.0,28.0,73,30.20,10.0,SE,16.1,-,N/A,,Clear,140,2013-03-14 00:53:00
8:53 PM,34.0,27.0,75,30.20,10.0,SSE,16.1,-,N/A,,Clear,150,2013-03-14 01:53:00
9:53 PM,33.1,27.0,78,30.18,10.0,SSE,17.3,-,N/A,,Clear,150,2013-03-14 02:53:00
10:53 PM,33.1,28.0,82,30.14,10.0,SSE,18.4,-,N/A,,Clear,160,2013-03-14 03:53:00
11:53 PM,34.0,28.0,79,30.13,10.0,South,15.0,-,N/A,,Scattered Clouds,170,2013-03-14 04:53:00